Location: Middle Street
(51.7167°N, 0.0333°E)
Time: 01:13:38
(UTC+00:00)

Lacrosse 5 - Pass Details

Date: 20 January 2021
Orbit: 715 x 724 km, 57.0° (Epoch: 28 February)

Event Time Altitude Azimuth Distance (km) Brightness Sun altitude
Rises 19:15:06 0° 299° (WNW) 3,124 6.1 -25.4°
Reaches altitude 10° 19:17:38 10° 290° (WNW) 2,201 5.3 -25.8°
Maximum altitude 19:22:11 34° 227° (SW) 1,165 3.2 -26.5°
Enters shadow 19:24:16 24° 183° (S) 1,445 3.4 -26.8°
